{"data":{"norad_id":65189,"epoch":"2026-05-25T03:06:02.873088Z","epoch_age_seconds":70761,"freshness":"FRESH","line1":"1 65189U 25175R   26145.12919992  .00011449  00000+0  79628-3 0  9992","line2":"2 65189  97.4526  17.6452 0001867  83.7900 276.3540 15.05649537 44143","mean_motion":15.05649537,"eccentricity":0.0001867,"inclination_deg":97.4526,"raan_deg":17.6452,"arg_perigee_deg":83.79,"mean_anomaly_deg":276.354,"bstar":0.00079628,"rev_number":4414,"period_min":95.639786325654,"perigee_km":548.21918207056,"apogee_km":550.80596642158,"semimajor_km":6927.6495742461,"source":"CELESTRAK","updated_at":"2026-05-25T13:38:20.715365Z"}}